Погода в Бостоне

Великобритания     52°58′39″N   0°01′13″E
темп.,
°C
ветер,
м/с
пор.,
м/с
влажн.,
%
обл.,
%
осадки,
мм/ч
давл.,
гПа
погр.,
м
4 декабря, сб
сб400:00+4юз229398 0.0 99726
03:00+4ююз4796100 0.0 995145
06:00+5зюз71393100 1.1 994855
09:00+5зюз511875 0.4 995499
12:00+6зюз81478100 0.4 9941184
15:00+5з101985100 0.9 9921320
18:00+5зсз71189100 1.8 992768
21:00+5зсз6118489 0.2 994706
5 декабря, вс
вс500:00+3сз71192100 0.3 996728
03:00+4сз91590100 0.8 998898
06:00+4сз9168958 1.8 1001577
09:00+6сз8149199 0.1 1003705
12:00+8с8127897 0.5 10061116
15:00+7ссв7127899 0.3 1009918
18:00+7с71273100 0.3 1011834
21:00+6с6118210 0.1 1013432
6 декабря, пн
пн600:00+5сз4684100 0.3 1013161
03:00+4сз2290100 0.1 101230
06:00+4ююз3590100 0.1 101091
09:00+4ююз51283100 0.0 1008498
12:00+3ю91893100 2.4 10021038
15:00+5з9167898 0.4 10011043
18:00+4з815765 0.4 1003716
21:00+3з815835 0.0 1005570
7 декабря, вт
вт700:00+3з815815 0.0 1007549
03:00+2з613855 0.0 1009354
06:00+1зюз369140 0.0 1008117
09:00+1ююз358798 0.0 1008104
12:00+4ююв61175100 0.0 1004454
15:00+5юв101775100 0.0 998764
18:00+5юв121985100 1.4 9931108
21:00+4юв101896100 3.9 9901184
8 декабря, ср
ср800:00+4ююв5992100 4.3 990422
03:00+3ю611955 0.0 990380
06:00+3ююв7128957 0.0 991380
09:00+3ююв613840 0.0 992383
12:00+6юв71272100 0.0 992723
15:00+6юв8147591 0.0 993598
18:00+5вюв81481100 0.2 996554
21:00+5вюв61287100 0.1 999394